{"data":{"norad_id":67881,"epoch":"2026-09-19T06:02:39.502176Z","epoch_age_seconds":171199,"freshness":"FRESH","line1":"1 67881U 26035C   26262.25184609  .00016812  00000+0  52177-3 0  9991","line2":"2 67881  97.2834 194.1487 0001159 104.4383 255.6988 15.33454685 33652","mean_motion":15.33454685,"eccentricity":0.0001159,"inclination_deg":97.2834,"raan_deg":194.1487,"arg_perigee_deg":104.4383,"mean_anomaly_deg":255.6988,"bstar":0.00052177,"rev_number":3365,"period_min":93.905611563605,"perigee_km":464.72117969128,"apogee_km":466.30753807626,"semimajor_km":6843.6513588838,"source":"CELESTRAK","updated_at":"2026-09-20T09:00:43.695278Z"}}